Clayton Lake, ME

3:11 PM EST on February 26, 2017 (GMT -0500)
Clayton Lake

Weather History for K40B - March, 2013

Change the Weather History Date:

Wednesday, March 20, 2013

  Actual Average Record
Temperature  
Mean Temperature 20 °F -  
Max Temperature 24 °F 33 °F 74 °F (2012)
Min Temperature 17 °F 9 °F -15 °F (2015)
Degree Days  
Heating Degree Days 46    
Moisture  
Dew Point 19 °F    
Average Humidity 93    
Maximum Humidity 100    
Minimum Humidity 87    
Precipitation  
Precipitation 0.38 in - - ()
Sea Level Pressure  
Sea Level Pressure 29.62 in    
Wind  
Wind Speed 4 mph (WSW)    
Max Wind Speed 8 mph    
Max Gust Speed 18 mph    
Averages and records for this station are not official NWS values.
T = Trace of Precipitation, MM = Missing Value Source: NWS Daily Summary

Daily Weather History Graph

Daily Weather History Graph

Search for Another Location

Airport or City:

Trip Planner

Search our weather history database for the weather conditions in past years. The results will help you decide how hot, cold, wet, or windy it might be!

Date:

Astronomy

Mar. 20, 2013 Rise Set
Actual Time 6:40 AM EDT 6:51 PM EDT
Civil Twilight 6:10 AM EDT 7:21 PM EDT
Nautical Twilight 5:35 AM EDT 7:56 PM EDT
Astronomical Twilight 4:58 AM EDT 8:33 PM EDT
Moon 12:03 PM EDT (3/20) 2:37 AM EDT (3/20)
Length of Visible Light 13h 10m
Length of Day
12h 10m
First Quarter, 59% of the Moon is Illuminated
Mar 20
First Quarter
Mar 27
Full
Apr 3
Last Quarter
Apr 10
New
Apr 18
First Quarter

Hourly Weather History & Observations

Time (EDT) Temp. Windchill Dew Point Humidity Pressure Visibility Wind Dir Wind Speed Gust Speed Precip Events Conditions
12:25 AM - - - N/A% 29.83 in - Variable 4.6 mph - 0.09 in   Unknown
1:25 AM - - - N/A% 29.80 in - Variable 6.9 mph 13.8 mph 0.10 in   Unknown
2:25 AM - - - N/A% 29.78 in - Variable 3.5 mph - 0.09 in   Unknown
3:25 AM - - - N/A% 29.75 in - Variable 3.5 mph - 0.05 in   Unknown
4:26 AM - - - N/A% 29.73 in - Calm Calm - 0.02 in   Unknown
5:25 AM - - - N/A% 29.70 in - Variable 2.3 mph - 0.01 in   Unknown
6:25 AM - - - N/A% 29.69 in - Variable 3.5 mph - 0.01 in   Unknown
7:25 AM - - - N/A% 29.67 in - Variable 2.3 mph - 0.01 in   Unknown
8:25 AM - - - N/A% 29.65 in - Variable 2.3 mph - 0.01 in   Unknown
9:25 AM 17.2 °F 11.9 °F 15.6 °F 93% 29.63 in - Variable 3.5 mph - 0.01 in   Unknown
10:25 AM 19.2 °F - 18.3 °F 96% 29.60 in - Variable 2.3 mph - N/A   Unknown
11:25 AM 21.0 °F 16.2 °F 18.5 °F 90% 29.58 in - Variable 3.5 mph - 0.00 in   Unknown
12:25 PM 21.4 °F 16.6 °F 18.1 °F 87% 29.57 in - Variable 3.5 mph - N/A   Unknown
1:29 PM 21.7 °F 14.3 °F 18.7 °F 88% 29.55 in - Variable 5.8 mph - 0.01 in   Unknown
2:25 PM 22.5 °F 16.3 °F 19.0 °F 87% 29.52 in - Variable 4.6 mph 13.8 mph 0.00 in   Unknown
3:25 PM 22.1 °F 12.8 °F 19.4 °F 89% 29.52 in - WSW 8.1 mph 17.3 mph 0.01 in   Unknown
4:29 PM 22.5 °F 16.3 °F 21.7 °F 97% 29.52 in - Variable 4.6 mph 18.4 mph 0.01 in   Unknown
5:25 PM 22.3 °F 16.1 °F 23.4 °F 100% 29.53 in - Variable 4.6 mph 12.7 mph 0.01 in   Unknown
6:26 PM - - - N/A% 29.54 in - Variable 5.8 mph 15.0 mph 0.01 in   Unknown
7:25 PM - - - N/A% 29.54 in - Variable 5.8 mph 15.0 mph 0.02 in   Unknown
8:26 PM - - - N/A% 29.55 in - Variable 4.6 mph 18.4 mph 0.00 in   Unknown
9:26 PM 21.0 °F 16.2 °F 21.4 °F 100% 29.55 in - Variable 3.5 mph 15.0 mph 0.00 in   Unknown
10:29 PM 20.7 °F - 19.2 °F 94% 29.55 in - Variable 2.3 mph - 0.00 in   Unknown
11:27 PM 20.7 °F 13.0 °F 18.0 °F 89% 29.54 in - Variable 5.8 mph 12.7 mph N/A   Unknown